Language selection

My Weather Profile Weather Topics  | 

Western Lake Superior: Past 24 Hour Conditions

 

Royal Island

10:00 AM CDT 22 September 2021
Disclaimer

This table is a summary of hourly weather conditions for the past 24 hours.
Please note that these observations might not always be representative of weather conditions over their associated marine area.

Date / Time
(CDT)
Wind(knots) Conditions Visibility(km) Pressure(kPa) Air tempC) Relative humidity(%) Dew pointC)
22 September 2021
10:00 SW 6 N/A N/A 102.2 14 66 8
9:00 SW 5 N/A N/A 102.2 12 72 7
8:00 SSW 3 N/A N/A 102.2 11 74 7
7:00 SW 4 N/A N/A 102.2 12 71 7
6:00 SSW 2 N/A N/A 102.2 12 80 9
5:00 S 3 N/A N/A 102.2 12 83 9
4:00 S 3 N/A N/A 102.3 13 76 9
3:00 SW 5 N/A N/A 102.3 13 75 9
2:00 SSW 4 N/A N/A 102.3 13 73 8
1:00 SSW 2 N/A N/A 102.3 13 77 9
0:00 SSW 4 N/A N/A 102.4 12 80 9
21 September 2021
23:00 S 1 N/A N/A 102.4 11 84 9
22:00 SSE 2 N/A N/A 102.4 11 83 9
21:00 SSW 2 N/A N/A 102.4 12 78 9
20:00 S 2 N/A N/A 102.4 13 71 8
19:00 SSW 2 N/A N/A 102.4 15 59 7
18:00 WNW 2 N/A N/A 102.4 17 50 6
17:00 WNW 4 N/A N/A 102.4 17 48 6
16:00 WNW 2 N/A N/A 102.4 19 41 5
15:00 NW 2 N/A N/A 102.4 18 43 6
14:00 WNW 4 N/A N/A 102.4 17 48 6
13:00 N 2 N/A N/A 102.4 17 46 5
12:00 N 3 N/A N/A 102.4 15 48 5
11:00 WNW 2 N/A N/A 102.3 15 61 7
10:00 WNW 2 N/A N/A 102.2 13 72 8

Zoom-in to make a selection

Map of Great Lakes - Lake Superior marine weather areas Mid Superior - 45001 East Superior - 45004 West Superior - 45006 Slate Island - 45136 Lake Of the Woods - 45148 Kenora Airport Royal Island Armstrong Airport Caribou Island Marathon Airport Pukaskwa National Park Thunder Bay Airport Welcome Island Little Flatland Island Sault Ste. Marie Airport Wawa Airport
Legend:
buoy Buoy
land station Land Station

Great Lakes - Lake Superior Area

Another Region

What we are doing

Date modified: